This is the latest recevied weather packets stored in our database for station/object VR2OT-10. If no packets are shown the sender has not sent any weather packets the latest 10 day(s).
| Time | Temp. | Humidity | Pressure | Rain* | Wind** | Luminosity | Snow |
|---|---|---|---|---|---|---|---|
| 1777346238 | 25.56° C | 81% | 1011.3 hPa | - | 2.68 m/s, 90° | - | - |
| 1777345338 | 25° C | 80% | 1011.5 hPa | - | 2.68 m/s, 90° | - | - |
| 1777342638 | 25.56° C | 82% | 1011.7 hPa | - | 3.13 m/s, 90° | - | - |
| 1777341738 | 25.56° C | 82% | 1011.8 hPa | - | 3.13 m/s, 90° | - | - |
| 1777340837 | 25.56° C | 83% | 1011.8 hPa | - | 3.58 m/s, 45° | - | - |
| 1777339939 | 25.56° C | 83% | 1011.6 hPa | - | 4.02 m/s, 90° | - | - |
| 1777339038 | 25° C | 83% | 1011.6 hPa | - | 4.02 m/s, 90° | - | - |
| 1777338138 | 25° C | 83% | 1011.8 hPa | - | 4.02 m/s, 90° | - | - |
| 1777337239 | 25° C | 85% | 1011.8 hPa | - | 3.58 m/s, 90° | - | - |
| 1777336339 | 24.44° C | 85% | 1011.8 hPa | - | 4.02 m/s, 90° | - | - |
| 1777335438 | 24.44° C | 85% | 1011.7 hPa | - | 3.58 m/s, 90° | - | - |
| 1777334539 | 23.89° C | 86% | 1011.6 hPa | - | 3.13 m/s, 90° | - | - |
| 1777333638 | 23.89° C | 85% | 1011.5 hPa | - | 3.13 m/s, 90° | - | - |
| 1777332737 | 23.89° C | 86% | 1011.7 hPa | - | 2.24 m/s, 90° | - | - |
| 1777331838 | 23.89° C | 84% | 1011.5 hPa | - | 2.68 m/s, 90° | - | - |
| 1777330938 | 24.44° C | 85% | 1010.8 hPa | - | 3.13 m/s, 90° | - | - |
| 1777330037 | 23.89° C | 85% | 1010.8 hPa | - | 2.68 m/s, 90° | - | - |
| 1777329139 | 23.89° C | 86% | 1010.6 hPa | - | 2.68 m/s, 90° | - | - |
| 1777328238 | 23.89° C | 86% | 1010.6 hPa | - | 2.68 m/s, 90° | - | - |
| 1777327338 | 23.89° C | 84% | 1010.3 hPa | - | 3.13 m/s, 90° | - | - |
| 1777326438 | 23.89° C | 86% | 1010.3 hPa | - | 2.68 m/s, 90° | - | - |
| 1777325539 | 23.89° C | 85% | 1010.2 hPa | - | 1.79 m/s, 90° | - | - |
| 1777324638 | 23.89° C | 84% | 1010.2 hPa | - | 1.79 m/s, 90° | - | - |
| 1777323738 | 23.89° C | 84% | 1010.2 hPa | - | 2.24 m/s, 90° | - | - |
| 1777322837 | 23.89° C | 85% | 1010.1 hPa | - | 2.68 m/s, 90° | - | - |
* Rain since midnight (hover to see other rain measurements)
** Current wind speed in m/s (hover to see current wind gust speed)